Regional Weather Roundup
Issued by NWS Albany, NY

Home | Current Version | Previous Version | Text Only | Print | Product List | Glossary On
Versions: 1 2 3 4 5 6 7 8 9 10 11 12 13 14 15 16 17 18 19 20 21 22 23 24 25 26 27 28 29 30 31 32 33 34 35 36 37 38 39 40 41 42 43 44 45 46 47 48 49 50
000
ASUS41 KALY 220710
RWRALY

NEW YORK STATE HOURLY WEATHER ROUNDUP
NATIONAL WEATHER SERVICE ALBANY NY
200 AM EST SAT NOV 22 2014

NOTE: "FAIR" INDICATES FEW OR NO CLOUDS BELOW 12,000 FEET WITH NO
SIGNIFICANT WEATHER AND/OR NO OBSTRUCTIONS TO VISIBILITY.

NYZ032-033-038>043-046>054-057>066-NYZ062>081-220800-
EAST


CITY           SKY/WX    TMP DP  RH WIND       PRES   REMARKS
ALBANY         CLEAR     17  10  74 SW5       30.43S WCI  10
GLENS FALLS    PTCLDY    20  13  74 S8        30.38F WCI  10
POUGHKEEPSIE   CLEAR     25  12  58 S6        30.47S WCI  18
NEWBURGH       CLEAR     21  12  68 W6        30.46F WCI  14
MONTGOMERY     CLEAR     17   9  70 SW5       30.45F WCI  10
WHITE PLAINS   CLEAR     26  10  50 W5        30.45F WCI  20
ISLIP          CLEAR     24  13  62 W5        30.48S WCI  18
NEW YORK CITY  CLEAR     32   9  38 W8        30.50S WCI  25
CENTRAL PARK   CLEAR     31   9  39 CALM      30.51F
$$

NYZ005>009-017-018-044>046-055-056-220800-
CENTRAL


CITY           SKY/WX    TMP DP  RH WIND       PRES   REMARKS
FULTON         CLOUDY    25  15  66 S7        30.38F WCI  17
SYRACUSE       CLOUDY    26  14  60 S9        30.39F WCI  17
ROME           MOCLDY    19  15  84 E3        30.42S
ELMIRA         PTCLDY    11   8  88 NE3       30.39F
BINGHAMTON     PTCLDY    17   9  70 SW8       30.35S WCI   7
MONTICELLO     CLEAR     14   9  79 W6        30.38S WCI   5
$$

NYZ026>034-041>043-220800-
NORTH


CITY           SKY/WX    TMP DP  RH WIND       PRES   REMARKS
WATERTOWN      FLURRIES  27  18  69 S12G18    30.33S WCI  17
FORT DRUM      NOT AVBL
MASSENA        CLEAR     19   9  65 SW9       30.32S WCI   8
SARANAC LAKE   CLOUDY    17  10  74 SW8       30.22F HAZE    WCI   7
PLATTSBURGH    NOT AVBL
$$

NYZ001>004-010>016-019>021-220800-
WEST


CITY           SKY/WX    TMP DP  RH WIND       PRES   REMARKS
NIAGARA FALLS  MOCLDY    28  18  66 SW20G26   30.31F WCI  15
BUFFALO        MOCLDY    23  10  57 S15       30.33F WCI  10
DUNKIRK        PTCLDY    20   9  62 SW20      30.36F WCI   4
JAMESTOWN      PTCLDY    14   7  73 S10       30.30F WCI   1
WELLSVILLE     PTCLDY    17   7  64 SW14      30.30F WCI   3
ROCHESTER      MOCLDY    24  12  60 SW10      30.35F WCI  14
PENN YAN       PTCLDY    23  11  60 S10       30.36F WCI  12
$$

             KEY
       WCI = WIND CHILL INDEX
       VSB = VISIBILITY
       HX  = HEAT INDEX
$$


USA.gov is the U.S. government's official web portal to all federal, state and local government web resources and services.